TAP1527 LPPT-DGAA

Flight info

Callsign TAP1527
Flight time N/A
Altitude 36000
Route DUZOP DCT MINTA N747 SVL/N0448F370 M744 MGA DCT BERUM UL58 XAVOV UM999 MNA UA604 EREBO/N0458F380 DCT MIGNI DCT ABALA DCT IPUTA DCT TATAT DCT KILMO UB726 ACC
Aircraft A20N/M-SDE2E3FGHIRWXY/LB1

Departure

Time 2026-05-01 11:53
Airport Lisbon Humberto Delgado Airport (LPPT)

Arrival

Time N/A
Airport Kotoka International Airport (DGAA)
Time Latitude Longitude Altitude Speed Heading
2026-05-01 11:25 38.76782 -9.13692 380 ft 0 kts 78°
2026-05-01 11:39 38.76782 -9.13693 381 ft 1 kts 78°
2026-05-01 11:39 38.76779 -9.13711 380 ft 2 kts 78°
2026-05-01 11:39 38.76776 -9.13730 380 ft 2 kts 78°
2026-05-01 11:39 38.76772 -9.13748 380 ft 2 kts 78°
2026-05-01 11:40 38.76769 -9.13767 380 ft 2 kts 78°
2026-05-01 11:40 38.76766 -9.13786 380 ft 2 kts 77°
2026-05-01 11:40 38.76768 -9.13804 380 ft 2 kts 125°
2026-05-01 11:40 38.76778 -9.13815 380 ft 0 kts 163°
2026-05-01 11:41 38.76784 -9.13816 380 ft 1 kts 170°
2026-05-01 11:41 38.76786 -9.13816 380 ft 0 kts 168°
2026-05-01 11:44 38.76785 -9.13816 380 ft 0 kts 168°
2026-05-01 11:45 38.76769 -9.13812 380 ft 4 kts 166°
2026-05-01 11:45 38.76729 -9.13799 380 ft 7 kts 166°
2026-05-01 11:45 38.76665 -9.13782 380 ft 10 kts 169°
2026-05-01 11:45 38.76617 -9.13719 380 ft 12 kts 83°
2026-05-01 11:46 38.76637 -9.13604 380 ft 13 kts 78°
2026-05-01 11:46 38.76657 -9.13483 380 ft 14 kts 76°
2026-05-01 11:46 38.76725 -9.13401 380 ft 13 kts 41°
2026-05-01 11:46 38.76759 -9.13290 380 ft 13 kts 79°
2026-05-01 11:47 38.76828 -9.13244 380 ft 12 kts 347°
2026-05-01 11:47 38.76917 -9.13269 380 ft 13 kts 348°
2026-05-01 11:47 38.77011 -9.13293 380 ft 14 kts 349°
2026-05-01 11:47 38.77114 -9.13319 380 ft 15 kts 348°
2026-05-01 11:48 38.77229 -9.13350 380 ft 18 kts 348°
2026-05-01 11:48 38.77365 -9.13386 380 ft 20 kts 348°
2026-05-01 11:48 38.77502 -9.13425 380 ft 19 kts 347°
2026-05-01 11:48 38.77636 -9.13464 380 ft 19 kts 346°
2026-05-01 11:49 38.77766 -9.13501 380 ft 18 kts 349°
2026-05-01 11:49 38.77831 -9.13517 380 ft 0 kts 349°
2026-05-01 11:49 38.77837 -9.13516 380 ft 2 kts
2026-05-01 11:49 38.77887 -9.13493 380 ft 12 kts 24°
2026-05-01 11:50 38.77990 -9.13437 380 ft 20 kts 23°
2026-05-01 11:50 38.78122 -9.13369 380 ft 19 kts 22°
2026-05-01 11:50 38.78248 -9.13302 380 ft 19 kts 24°
2026-05-01 11:50 38.78364 -9.13239 381 ft 14 kts 22°
2026-05-01 11:51 38.78449 -9.13221 380 ft 11 kts 353°
2026-05-01 11:51 38.78512 -9.13243 380 ft 9 kts 332°
2026-05-01 11:51 38.78548 -9.13309 380 ft 8 kts 290°
2026-05-01 11:51 38.78558 -9.13361 380 ft 1 kts 232°
2026-05-01 11:52 38.78557 -9.13362 380 ft 0 kts 203°
2026-05-01 11:52 38.78554 -9.13364 380 ft 1 kts 203°
2026-05-01 11:52 38.78451 -9.13419 380 ft 46 kts 202°
2026-05-01 11:52 38.77942 -9.13694 381 ft 110 kts 203°
2026-05-01 11:53 38.77058 -9.14167 381 ft 162 kts 204°
2026-05-01 11:53 38.75996 -9.14761 852 ft 166 kts 203°
2026-05-01 11:53 38.74932 -9.15341 1396 ft 170 kts 203°
2026-05-01 11:53 38.73837 -9.15922 1965 ft 173 kts 201°
2026-05-01 11:54 38.72716 -9.16504 2406 ft 180 kts 201°
2026-05-01 11:54 38.71500 -9.17114 2717 ft 195 kts 201°
2026-05-01 11:54 38.70184 -9.17769 3049 ft 211 kts 200°
2026-05-01 11:54 38.68768 -9.18465 3408 ft 227 kts 201°
2026-05-01 11:55 38.67226 -9.19233 3693 ft 248 kts 202°
2026-05-01 11:55 38.65587 -9.20124 4146 ft 263 kts 203°
2026-05-01 11:55 38.63890 -9.21011 4886 ft 266 kts 200°
2026-05-01 11:55 38.62145 -9.21724 5707 ft 265 kts 196°
2026-05-01 11:56 38.60375 -9.22378 6478 ft 267 kts 196°
2026-05-01 11:56 38.58590 -9.23023 7236 ft 269 kts 195°
2026-05-01 11:56 38.56760 -9.23495 7985 ft 271 kts 180°
2026-05-01 11:56 38.54923 -9.23023 8725 ft 274 kts 157°
2026-05-01 11:57 38.53263 -9.21838 9497 ft 276 kts 152°
2026-05-01 11:57 38.52166 -9.21007 9987 ft 277 kts 152°
2026-05-01 11:57 38.49935 -9.19332 10752 ft 287 kts 152°
2026-05-01 11:57 38.48161 -9.18014 11063 ft 304 kts 152°
2026-05-01 11:58 38.46285 -9.16622 11351 ft 320 kts 152°
2026-05-01 11:58 38.44314 -9.15161 11727 ft 335 kts 152°
2026-05-01 11:58 38.40241 -9.12139 12939 ft 342 kts 152°
2026-05-01 11:59 38.38178 -9.10613 13600 ft 345 kts 152°
2026-05-01 11:59 38.36099 -9.09075 14194 ft 349 kts 153°
2026-05-01 11:59 38.33998 -9.07519 14800 ft 352 kts 153°
2026-05-01 12:00 38.29725 -9.04372 15926 ft 360 kts 153°
2026-05-01 12:00 38.27556 -9.02775 16491 ft 363 kts 153°
2026-05-01 12:00 38.23140 -8.99527 17515 ft 371 kts 154°
2026-05-01 12:01 38.20891 -8.97875 18013 ft 376 kts 154°
2026-05-01 12:01 38.18620 -8.96208 18508 ft 379 kts 154°
2026-05-01 12:01 38.16327 -8.94523 18954 ft 383 kts 154°
2026-05-01 12:01 38.14012 -8.92826 19395 ft 388 kts 155°
2026-05-01 12:02 38.11661 -8.91103 19816 ft 393 kts 155°
2026-05-01 12:02 38.09288 -8.89365 20258 ft 396 kts 155°
2026-05-01 12:02 38.06858 -8.87708 20670 ft 398 kts 159°
2026-05-01 12:02 38.04345 -8.86227 21073 ft 400 kts 161°
2026-05-01 12:03 38.01796 -8.84785 21500 ft 404 kts 162°
2026-05-01 12:03 37.99215 -8.83327 21890 ft 408 kts 162°
2026-05-01 12:03 37.96614 -8.81861 22271 ft 412 kts 162°
2026-05-01 12:03 37.93990 -8.80377 22669 ft 415 kts 162°
2026-05-01 12:04 37.91346 -8.78885 23040 ft 419 kts 162°
2026-05-01 12:04 37.88662 -8.77370 23400 ft 423 kts 162°
2026-05-01 12:04 37.85966 -8.75850 23799 ft 426 kts 162°
2026-05-01 12:04 37.83258 -8.74323 24192 ft 429 kts 162°
2026-05-01 12:05 37.80528 -8.72785 24548 ft 432 kts 162°
2026-05-01 12:05 37.75001 -8.69676 25229 ft 439 kts 162°
2026-05-01 12:05 37.72208 -8.68107 25586 ft 441 kts 162°
2026-05-01 12:06 37.69438 -8.66398 25871 ft 452 kts 154°
2026-05-01 12:06 37.66945 -8.63903 26188 ft 466 kts 139°
2026-05-01 12:06 37.64947 -8.60639 26499 ft 478 kts 124°
2026-05-01 12:06 37.63352 -8.56945 26823 ft 483 kts 121°
2026-05-01 12:07 37.61814 -8.53180 27098 ft 486 kts 121°
2026-05-01 12:07 37.60270 -8.49389 27372 ft 489 kts 121°
2026-05-01 12:07 37.58702 -8.45570 27661 ft 491 kts 121°
2026-05-01 12:07 37.57128 -8.41774 28039 ft 491 kts 121°
2026-05-01 12:08 37.55543 -8.37983 28451 ft 490 kts 121°
2026-05-01 12:08 37.53955 -8.34203 28812 ft 490 kts 122°
2026-05-01 12:08 37.52360 -8.30420 29167 ft 490 kts 122°
2026-05-01 12:08 37.50753 -8.26619 29511 ft 490 kts 122°
2026-05-01 12:09 37.49155 -8.22844 29838 ft 491 kts 122°
2026-05-01 12:09 37.47552 -8.19061 30151 ft 491 kts 122°
2026-05-01 12:09 37.45949 -8.15282 30490 ft 491 kts 122°
2026-05-01 12:09 37.44341 -8.11507 30852 ft 490 kts 122°
2026-05-01 12:10 37.42740 -8.07736 31202 ft 490 kts 122°
2026-05-01 12:10 37.39530 -8.00208 31854 ft 489 kts 122°
2026-05-01 12:10 37.37924 -7.96445 32176 ft 488 kts 122°
2026-05-01 12:11 37.34722 -7.88957 32781 ft 488 kts 123°
2026-05-01 12:11 37.33120 -7.85213 33087 ft 487 kts 123°
2026-05-01 12:11 37.31520 -7.81485 33364 ft 486 kts 123°
2026-05-01 12:12 37.29909 -7.77734 33611 ft 486 kts 122°
2026-05-01 12:12 37.28305 -7.74002 33873 ft 486 kts 123°
2026-05-01 12:12 37.26703 -7.70279 34110 ft 486 kts 123°
2026-05-01 12:12 37.25099 -7.66552 34376 ft 486 kts 123°
2026-05-01 12:13 37.23497 -7.62838 34671 ft 485 kts 123°
2026-05-01 12:13 37.21895 -7.59131 34925 ft 484 kts 123°
2026-05-01 12:13 37.20289 -7.55416 35106 ft 486 kts 123°
2026-05-01 12:13 37.18676 -7.51694 35266 ft 487 kts 123°
2026-05-01 12:14 37.17204 -7.48297 35421 ft 488 kts 122°
2026-05-01 12:14 37.14791 -7.40447 35723 ft 498 kts 104°
2026-05-01 12:14 37.14269 -7.36162 35881 ft 501 kts 94°